Location: Bazugues
(43.4465°N, 0.3432°E)
Time: 17:09:53
(UTC+00:00)

USA 238 DEB - Visible Passes

Search period start: 11 April 2026 00:00
Search period end: 21 April 2026 00:00
Orbit: 883 x 1328 km, 63.4° (Epoch: 10 January)

Date Brightness Start Highest point End Pass type
(mag) Time Alt. Az. Time Alt. Az. Time Alt. Az.
11 Apr 5.8 00:00:43 10° WNW 00:03:09 17° W 00:03:09 17° W visible
11 Apr 5.4 19:32:46 10° NNW 19:38:24 24° NNE 19:44:25 10° E visible
11 Apr 4.0 21:23:16 10° NNW 21:30:42 68° NE 21:32:16 56° ESE visible
11 Apr 5.2 23:14:48 10° NW 23:19:41 29° W 23:19:41 29° W visible
12 Apr 4.4 20:38:21 10° NNW 20:45:29 49° NE 20:48:50 32° E visible
12 Apr 4.5 22:29:22 10° NW 22:36:15 47° WSW 22:36:15 47° WSW visible
13 Apr 4.8 19:53:30 10° NNW 20:00:08 36° NE 20:05:26 17° E visible
13 Apr 4.0 21:44:10 10° NW 21:51:40 70° WSW 21:52:52 62° S visible
13 Apr 6.0 23:37:38 10° WNW 23:40:18 14° W 23:40:18 14° W visible
14 Apr 5.2 19:08:37 10° NNW 19:14:39 27° NNE 19:21:07 10° E visible
14 Apr 3.9 20:59:08 10° NW 21:06:40 83° NE 21:09:30 45° SE visible
14 Apr 5.4 22:51:09 10° WNW 22:56:56 24° WSW 22:56:56 24° WSW visible
15 Apr 4.2 20:14:11 10° NNW 20:21:32 59° NE 20:26:12 26° ESE visible
15 Apr 4.8 22:05:29 10° NW 22:12:21 38° WSW 22:13:38 35° SW visible
16 Apr 4.6 19:29:18 10° NNW 19:36:15 43° NE 19:42:56 13° ESE visible
16 Apr 4.4 21:20:10 10° NW 21:27:31 56° WSW 21:30:23 39° S visible
16 Apr 6.2 23:15:59 10° W 23:17:11 10° WSW 23:17:49 10° WSW visible
17 Apr 4.0 20:35:03 10° NW 20:42:35 82° WSW 20:47:10 29° SSE visible
17 Apr 5.7 22:27:44 10° WNW 22:32:42 19° WSW 22:34:37 17° SW visible
18 Apr 4.1 19:50:03 10° NW 19:57:31 72° NE 20:04:01 17° SE visible
18 Apr 5.3 21:41:42 10° NW 21:48:05 29° WSW 21:51:28 22° SSW visible
19 Apr 4.4 19:05:08 10° NNW 19:12:20 51° NE 19:20:07 10° ESE visible
19 Apr 4.8 20:56:13 10° NW 21:03:20 45° WSW 21:08:23 21° S visible
20 Apr 4.3 20:11:00 10° NW 20:18:27 66° WSW 20:25:22 15° SSE visible
20 Apr 6.1 22:04:49 10° WNW 22:08:20 14° WSW 22:11:55 10° SW visible
